Location: Seattle
(47.6064°N, 122.3308°W)
Time: 18:37:27
(UTC-08:00)

N. Korean satellite - Pass Details

Date: 02 December 2022
Orbit: 408 x 444 km, 97.3° (Epoch: 28 January)

Event Time Altitude Azimuth Distance (km) Brightness Sun altitude
Rises 04:28:35 0° 30° (NNE) 2,524 10.6 -31.1°
Reaches altitude 10° 04:31:27 10° 56° (NE) 1,634 9.9 -30.6°
Maximum altitude 04:33:25 14° 91° (E) 1,377 9.7 -30.3°
Drops below altitude 10° 04:35:23 10° 125° (SE) 1,613 9.8 -29.9°
Sets 04:38:10 0° 151° (SSE) 2,468 10.5 -29.5°
